DELTA 1 DEB, 26829

Orbit data source: Space-Track

DELTA 1 DEB, 26829 is space debris in SSO originally from a launch on Thu, 12 Jun 1975 UTC launched from the Air Force Western Test Range (AFWTR). Debris objects in space refer to the collection of defunct objects orbiting the Earth. Examples of debris include non-operational satellites, rocket bodies, and fragments generated from explosions, collisions, or faulty payload assembly.

Loading next visibility...
Identifier
26829, 1975-052KH
Orbit
SSO
Country
Flag of USUS
Related business
Manufacturer
Unknown
Mission
Spacecraft
Bus & Motor
Unknown
Mass
Unknown
Launch date (UTC)
1975-06-12 (50 years ago)
Launch vehicle
Unknown
Launch site
Air Force Western Test Range (AFWTR)
Object type
Payload
Rocket body
Debris
Shape & HBR
Unknown shape, 0.1 m
Radar Cross Section
Small (<0.1 m²)

Expand to show TLE details & history
Last TLE update: 1 day ago

TLE from 1 day ago
0 DELTA 1 DEB
1 26829U 75052KH  25287.53771951  .00000190  00000-0  55098-3 0  9998
2 26829  99.5930 143.0795 0256616  97.2561 295.6398 13.10274191484163
Epoch: 2025-10-14T12:54Z
TLE epoch observation values (Epoch: 2025-10-14T12:54:18.965Z)
Latitude
29.79261°
Longitude
-79.34871°
Altitude
1,145.401 km
Speed
7.321 km/s
True Right ascension
09h 10m 13s
True Declination
29° 39' 08"
Sunlit
Object was in daylight at epoch
Visualization orbit readout
Latitude
Unknown
Longitude
Unknown
Altitude
Unknown
Speed
Unknown
Apparent Right ascension
Unknown
Apparent Declination
Unknown
Sunlit
N/A
Visualization observer readout
Local Sidereal Time
11:50:15
Azimuth
Unknown
Elevation
Unknown
Doppler factor
Unknown
Orbital elements
Apogee altitude
1,414.411 km
Perigee altitude
1,024.479 km
Semi-major axis
7,597.582 km
Eccentricity
0.02566
Inclination
99.593°
RAAN
143.0795°
Arg. of periapsis
97.2561°
True anomaly
292.95245°
Mean anomaly
295.6398°
Eccentric anomaly
294.29976°
Mean motion
3.2774 °/min
Orbital period
109.84 mins
BSTAR
0.00055098
Loading maneuver chart data...
Computing Atmospheric mass density...
Loading historical data...
Loading historical data...
Loading historical data...
Loading historical data...
Loading historical data...
Loading historical data...
Loading historical data...

Documentation

Showing up to 5 results
|